Theta_e
315 307 309 307 300 298 292 295 297 305 312 319 319 315 316 319 311 307 331 332 333 338 342 344 345 348 349 349 349 348 349 348 347 346 345 344 343 342 342 340 338 336 335 335 337 337 342 344 343
313 305 305 301 296 293 296 298 299 311 319 321 321 320 319 315 327 327 328 330 333 336 340 343 343 345 348 349 349 349 349 348 347 345 344 343 342 342 341 340 336 334 335 335 337 339 338 338 337
308 302 303 297 293 292 297 300 312 316 317 317 320 323 322 321 328 328 332 330 333 334 338 342 342 343 345 346 348 349 349 348 347 346 344 344 342 341 341 337 334 335 336 337 337 337 338 338 336
306 303 299 299 294 295 299 306 315 314 315 321 321 316 324 329 330 334 329 332 332 333 338 340 339 341 343 343 343 344 344 344 344 344 343 342 340 339 337 336 335 336 336 337 337 338 337 337 335
301 301 296 296 296 299 302 304 310 310 312 315 318 316 320 330 334 331 332 333 330 331 335 338 337 340 342 341 341 341 341 342 343 342 341 341 339 335 333 332 334 335 336 336 336 335 333 332 331
299 299 295 294 295 295 301 302 309 309 313 315 317 317 320 331 330 331 333 331 331 330 334 336 338 339 340 340 340 339 339 339 339 340 340 339 337 336 335 335 334 333 332 332 332 333 333 333 333
297 295 291 291 292 294 297 298 301 303 305 309 319 313 321 327 331 333 333 332 333 333 333 335 336 336 336 336 336 336 337 337 337 337 336 335 335 333 332 332 331 331 330 329 329 329 329 328 327
297 297 291 291 292 292 297 299 299 302 304 314 317 311 317 328 333 333 334 332 333 335 334 335 335 334 335 335 333 334 335 336 335 334 333 332 332 330 329 326 328 329 328 327 327 326 325 324 324
298 294 291 291 293 295 298 298 300 303 308 305 312 319 318 332 332 333 333 332 333 333 334 335 335 333 333 333 333 333 335 336 335 334 332 331 334 331 328 327 327 327 326 325 324 324 322 320 319
297 294 293 296 296 297 298 298 299 302 306 309 313 317 325 330 331 330 331 330 331 333 335 335 336 335 332 329 333 334 334 337 339 338 336 335 333 330 328 326 325 325 325 323 323 322 319 317 321
298 296 297 297 298 299 299 300 300 301 301 307 307 316 325 328 330 330 331 332 332 334 335 335 336 337 335 332 334 334 334 335 336 337 336 334 332 332 331 329 328 329 324 326 323 324 325 325 324
298 298 299 300 299 299 299 301 299 300 302 306 312 321 325 325 326 329 330 332 332 333 336 337 337 336 337 336 335 334 333 333 333 334 334 334 332 330 328 327 327 328 329 327 326 326 324 323 322
299 299 300 301 299 300 300 300 300 300 304 303 312 320 323 325 326 328 331 332 331 331 334 337 337 335 333 331 333 333 333 333 334 333 333 331 330 329 327 326 326 327 327 326 325 324 319 316 314
302 301 300 301 301 301 300 300 300 302 302 303 310 317 323 325 326 325 324 326 327 328 331 331 330 330 328 328 329 331 331 332 332 333 332 331 330 329 327 326 325 326 326 325 324 319 315 314 313
301 298 299 299 299 300 299 298 298 302 301 301 304 312 319 323 325 325 323 322 323 326 326 325 326 328 327 325 323 322 324 324 328 329 330 328 327 327 326 325 325 325 325 324 320 316 315 312 311
297 297 295 298 300 300 300 296 301 300 301 302 301 303 312 317 318 315 316 312 317 319 320 322 323 325 326 324 324 323 322 321 320 320 322 323 323 323 324 322 322 323 323 322 319 316 312 309 309
295 291 292 295 299 300 300 297 302 302 301 302 301 300 306 311 310 308 308 309 313 317 318 320 322 322 323 321 321 322 321 321 320 319 318 320 320 321 321 320 319 319 318 318 317 314 311 308 308
291 291 293 292 297 300 297 298 300 298 296 298 299 299 302 306 305 305 306 307 309 313 316 319 318 319 318 317 315 314 313 313 313 314 314 315 316 318 319 318 317 317 314 314 312 311 310 308 308
294 292 292 295 297 298 296 296 297 298 298 297 298 300 302 304 303 304 305 307 308 311 313 314 314 314 312 310 310 310 310 310 310 311 311 311 312 313 315 315 316 316 313 313 313 311 309 307 308
294 292 292 295 296 297 296 296 296 298 297 298 300 301 302 303 303 303 305 307 308 310 310 307 306 307 307 307 308 308 308 309 308 309 311 311 310 311 310 312 312 313 312 313 313 310 309 307 308
294 292 292 292 295 296 295 294 295 297 298 299 300 301 302 304 304 304 305 306 306 306 305 305 306 307 308 309 309 309 309 309 309 308 308 309 310 310 310 310 310 311 311 310 313 312 309 307 307
292 295 295 293 293 291 294 289 294 295 296 298 299 300 302 303 304 304 305 305 305 306 308 309 309 309 308 309 307 306 304 303 305 306 306 307 309 309 308 308 308 309 310 309 310 311 310 308 306
295 297 295 294 293 292 293 291 293 295 294 296 299 300 302 302 303 302 304 305 305 307 307 308 308 308 308 307 305 305 304 305 305 305 304 305 306 307 306 305 305 306 307 308 308 308 306 306 304
298 296 293 293 292 288 290 290 291 294 295 296 299 301 301 301 302 303 305 305 306 307 308 308 308 307 308 307 305 304 304 303 303 304 303 304 304 304 303 302 303 302 302 301 301 300 301 300 300
298 292 287 287 287 286 290 289 291 296 296 297 298 299 301 303 303 303 304 304 305 306 306 307 306 306 306 306 303 303 304 304 303 302 302 301 301 301 300 300 301 301 301 301 301 300 299 298 297
294 293 287 280 283 285 290 287 291 297 299 299 299 300 300 301 303 303 303 304 304 305 306 306 305 305 306 306 303 303 303 302 301 301 301 301 299 299 300 301 301 301 301 301 301 300 295 294 293
294 291 293 286 279 285 288 292 295 298 298 299 298 299 299 300 302 303 304 305 305 305 306 305 305 305 305 305 302 302 301 300 300 300 299 298 297 299 301 301 301 301 301 300 298 298 294 292 291
297 297 289 289 282 280 286 287 290 293 295 296 297 298 300 302 303 304 305 305 305 306 305 306 306 304 304 303 300 300 300 300 298 296 295 296 297 300 300 299 297 297 297 297 296 296 296 295 295
294 292 291 291 288 284 281 287 295 295 296 296 297 298 300 302 303 304 304 305 304 305 305 305 305 303 303 299 299 299 298 295 293 294 295 295 298 297 295 295 295 294 293 294 295 294 294 293 293
295 292 291 286 283 286 284 285 296 297 298 298 298 299 301 302 303 303 303 304 304 304 304 304 303 301 299 298 299 297 294 292 292 293 294 295 295 295 294 294 294 293 293 294 292 291 291 290 289
Wind_Speed
2 3 2 2 2 3 4 2 2 4 3 3 4 4 7 5 1 4 3 5 8 7 5 3 6 7 7 8 8 7 8 9 9 7 9 8 8 9 9 8 7 5 5 7 8 8 8 7 10
3 3 3 3 4 8 4 2 3 3 9 6 7 5 3 5 3 5 5 6 7 6 5 5 4 6 6 8 7 7 8 8 8 7 7 7 7 5 6 6 7 7 8 9 9 9 7 8 8
3 4 2 4 3 5 5 1 8 7 3 2 5 3 3 4 4 8 3 9 7 6 5 5 6 5 5 7 5 5 6 5 4 4 4 6 5 4 5 7 7 7 8 8 8 7 8 9 9
1 2 4 7 7 2 2 6 6 5 3 3 6 7 3 2 8 5 12 9 7 7 7 6 5 5 5 6 8 9 8 7 8 6 7 7 6 8 9 9 8 7 8 8 7 7 8 7 5
4 2 5 8 6 3 2 2 3 3 2 3 1 4 3 1 3 13 11 9 9 7 5 6 5 5 5 6 7 7 7 6 5 6 6 4 5 6 6 7 8 8 8 10 9 8 8 6 6
4 2 6 9 6 2 4 2 3 2 4 3 5 4 3 2 11 11 10 9 7 7 5 5 5 6 6 6 6 6 6 5 6 6 4 5 6 6 6 6 5 6 7 7 8 8 9 9 11
6 4 4 5 5 3 3 1 5 4 4 2 7 4 2 4 7 9 9 7 5 5 5 5 5 5 4 4 4 4 4 5 5 5 5 4 4 4 5 5 5 6 7 7 8 8 8 9 9
5 5 4 2 5 3 0 2 2 2 2 2 1 5 6 9 11 8 6 6 6 7 7 7 5 4 3 3 3 3 2 3 3 4 3 3 3 4 4 3 4 5 6 7 7 7 7 8 8
2 5 3 4 6 3 1 3 1 1 5 1 2 4 1 14 13 10 7 7 6 6 7 6 5 4 4 3 2 4 4 4 3 3 3 2 1 2 3 4 4 4 5 6 6 6 6 5 6
4 4 4 3 2 3 2 1 2 3 2 3 2 2 5 15 15 14 12 11 10 11 9 7 6 5 4 3 4 4 2 2 2 1 1 2 3 3 5 4 4 5 5 6 7 8 6 4 3
3 4 4 2 4 3 2 2 1 6 1 4 7 8 12 15 14 14 13 11 14 9 7 8 7 6 5 4 2 2 2 2 2 3 3 3 2 3 3 3 2 2 2 2 3 4 3 5 4
6 3 2 4 4 4 3 2 1 3 3 3 4 12 15 16 14 14 14 14 12 11 10 9 7 5 5 3 3 3 3 3 3 3 4 3 3 3 4 3 4 3 3 4 3 2 3 5 4
5 2 2 2 5 2 4 3 2 7 8 2 6 12 16 15 14 14 14 11 9 10 9 8 6 6 4 4 3 4 4 4 4 4 5 4 4 4 4 4 4 4 4 4 4 3 3 3 3
3 4 3 4 1 1 1 0 1 1 2 4 7 13 14 15 16 10 10 12 11 10 9 6 6 4 3 3 4 3 4 4 5 5 5 6 5 5 5 5 5 5 5 4 4 4 3 3 3
3 5 3 8 4 3 2 2 4 3 2 4 7 9 11 13 9 12 8 9 9 9 7 9 7 6 5 5 4 4 3 3 4 4 6 7 6 7 7 6 6 7 5 6 5 5 4 4 4
6 5 3 5 6 3 1 5 5 4 5 5 3 7 9 11 8 6 8 8 7 8 11 9 7 7 6 5 4 3 3 3 4 4 5 7 8 8 7 7 7 6 5 6 6 6 5 6 5
8 3 3 4 4 4 4 6 4 11 8 10 5 4 8 8 5 2 4 3 6 9 10 10 7 8 6 5 4 4 4 4 4 5 6 8 9 9 8 8 8 7 6 7 7 7 7 7 7
1 1 1 3 5 6 3 7 11 11 3 3 3 2 6 6 1 5 6 1 5 6 7 7 7 6 4 3 2 3 3 3 4 5 6 9 8 10 9 9 11 8 8 8 8 10 8 8 8
3 2 2 3 2 5 3 6 9 10 9 8 6 6 7 6 3 3 3 1 4 5 7 8 5 2 3 3 3 2 3 4 4 4 7 9 9 10 10 10 11 10 11 13 11 10 12 9 7
2 3 2 3 1 1 5 4 4 9 6 5 7 8 7 6 4 3 2 2 2 4 5 7 7 6 4 2 2 2 3 3 5 6 8 8 9 9 8 10 11 12 11 14 14 14 10 8 9
1 2 2 3 6 2 4 2 6 4 5 5 6 4 4 6 6 4 4 6 9 9 8 7 6 6 6 6 3 3 2 3 3 9 9 11 12 11 10 11 11 12 11 12 14 14 17 13 9
2 2 3 3 1 1 4 3 4 5 3 2 2 3 3 4 5 7 7 9 8 7 8 10 10 10 9 7 6 6 5 6 6 8 9 11 12 12 12 11 11 11 10 13 13 12 13 13 13
2 1 1 1 3 2 5 0 2 3 2 2 3 3 4 6 7 8 8 9 10 9 9 8 7 8 7 6 6 5 6 5 6 8 12 13 12 12 12 10 10 10 8 11 12 12 11 11 12
4 2 3 3 2 2 1 3 2 3 5 4 2 5 8 8 6 7 8 7 8 6 6 5 6 7 7 7 8 8 8 9 10 13 12 12 11 10 9 9 5 4 4 4 5 6 6 5 4
8 3 1 2 3 1 1 1 2 7 7 5 6 7 8 8 9 8 7 6 6 7 8 7 8 9 10 8 7 8 10 12 15 15 12 16 11 11 7 3 4 6 9 10 9 9 9 9 7
4 3 2 1 2 4 2 0 4 5 6 6 9 7 8 7 6 5 2 1 3 5 7 8 10 11 12 11 10 10 11 9 10 12 12 11 11 7 3 5 5 5 6 6 6 5 5 7 6
1 5 1 6 2 2 3 1 5 5 11 10 8 8 8 8 6 3 2 4 5 8 12 11 11 11 9 9 7 9 10 12 12 15 14 10 8 3 3 2 3 3 2 4 3 1 5 6 5
4 4 1 4 2 3 5 4 3 2 4 2 4 6 6 6 9 9 9 10 7 7 7 7 6 8 8 8 6 8 11 11 12 12 13 10 3 1 3 4 3 4 5 6 2 2 2 4 4
3 2 5 4 1 2 3 5 5 5 3 1 3 0 3 6 8 9 10 11 9 6 8 8 7 8 8 7 9 10 10 11 11 9 8 5 4 4 3 5 7 10 9 7 5 4 4 4 4
1 3 3 2 2 0 1 8 3 6 3 2 6 3 4 6 8 9 10 9 6 8 10 10 9 9 6 8 8 8 8 9 8 8 7 7 6 6 5 7 8 9 8 9 6 4 4 5 5
Wind_Direction
63 110 95 37 110 87 101 72 309 115 97 53 95 120 104 41 56 83 56 128 130 139 145 104 68 65 63 114 120 125 115 130 123 129 112 109 93 75 72 53 35 15 351 340 342 345 354 0 17
117 141 67 79 99 106 71 337 128 75 124 119 98 126 96 88 115 132 150 166 151 139 149 130 102 91 99 121 129 137 135 132 135 128 113 108 100 74 55 28 25 12 4 3 0 6 16 12 6
115 52 86 88 89 94 110 133 130 126 145 130 117 49 111 105 111 148 188 155 143 154 151 157 147 127 121 105 113 97 96 105 106 94 99 90 81 54 34 33 43 22 16 6 357 357 358 24 26
109 69 67 84 85 43 102 149 150 141 121 76 111 86 76 347 155 164 145 147 154 165 173 165 155 144 89 73 66 61 65 64 56 50 51 50 32 28 25 18 14 9 4 352 357 5 15 23 19
43 70 71 86 74 67 54 142 155 147 103 91 85 110 65 30 116 138 146 165 169 171 165 157 147 141 122 110 104 100 90 94 108 95 86 83 61 48 42 38 31 18 12 23 19 22 23 26 24
74 71 95 105 106 83 101 98 135 111 90 133 101 99 68 46 144 154 155 168 180 165 163 158 173 167 148 130 121 115 107 94 70 64 70 73 72 74 68 74 81 84 80 73 59 49 51 53 53
98 82 116 126 128 124 164 220 146 127 141 151 134 88 96 178 163 158 163 170 163 165 161 179 183 165 150 127 103 115 125 110 99 90 79 80 84 76 59 51 41 50 60 54 47 52 59 68 62
100 87 116 133 165 140 86 113 125 133 92 106 228 146 163 187 166 156 153 163 175 181 189 185 177 155 125 145 166 173 170 144 125 111 96 75 64 57 49 20 28 39 47 36 30 33 43 54 53
129 79 121 161 162 136 171 141 116 88 121 164 198 168 134 151 144 152 166 175 186 204 207 189 169 173 173 170 193 212 208 188 174 165 144 161 302 338 346 14 11 32 27 38 34 31 30 39 62
77 89 150 198 140 109 94 67 131 155 110 140 169 102 122 143 160 172 186 189 195 201 205 202 189 190 184 194 200 198 229 234 229 230 242 280 318 327 330 340 357 10 12 9 10 16 24 7 0
63 104 164 187 164 138 96 98 115 133 217 214 185 153 152 158 177 186 199 203 202 204 210 201 202 207 211 211 211 221 235 235 233 234 230 230 256 280 289 298 297 306 335 315 318 321 327 329 331
100 122 135 155 149 114 142 145 113 220 224 293 191 160 163 177 184 197 209 216 210 207 213 209 207 214 228 242 233 234 241 245 248 247 240 246 259 264 273 280 277 266 265 277 279 290 305 306 305
87 146 119 111 152 144 141 194 198 233 250 284 154 166 182 181 189 208 218 226 225 226 218 212 199 215 216 232 246 234 236 237 254 250 240 241 249 253 258 256 256 258 258 257 248 248 272 279 296
104 91 54 40 87 17 299 18 278 53 39 160 174 193 188 191 198 202 213 229 225 225 212 189 195 209 202 228 240 235 235 242 239 241 244 236 250 261 268 271 267 261 249 244 245 245 247 254 256
59 88 75 28 341 38 331 249 222 306 331 173 200 210 202 212 202 211 215 234 239 231 205 182 181 198 212 229 229 231 235 247 255 251 243 241 243 254 261 268 268 268 261 254 242 238 245 248 235
43 57 20 21 6 13 32 285 309 4 341 303 302 216 211 214 230 240 238 241 236 211 191 181 184 187 204 229 236 239 239 250 265 269 268 255 253 254 257 256 258 263 253 248 244 240 244 243 235
25 68 5 319 60 352 39 280 310 333 302 288 298 236 207 213 227 259 312 256 198 193 176 181 181 202 208 227 246 257 265 256 271 278 274 273 263 254 254 259 260 253 250 241 238 239 234 239 236
79 80 263 282 358 346 341 294 327 349 318 314 5 111 175 170 83 335 329 243 171 176 171 180 191 200 219 247 288 275 270 287 275 272 274 280 275 270 259 260 260 256 250 244 230 236 228 242 242
147 162 248 256 184 326 350 316 358 0 45 56 72 104 120 103 34 7 10 103 142 153 167 186 188 21 355 3 340 328 344 330 303 295 293 281 275 273 266 265 268 258 250 248 241 240 237 227 226
132 207 257 252 304 335 351 5 354 30 41 46 85 90 104 111 109 88 100 99 73 99 46 38 36 27 18 343 325 305 307 303 301 316 311 308 298 294 276 266 268 263 259 252 245 235 237 242 209
2 104 26 298 335 79 329 86 22 34 58 51 59 94 124 128 128 134 90 59 38 41 27 27 32 41 46 26 1 333 295 299 322 342 333 331 321 312 304 290 279 277 267 259 250 242 235 239 218
7 74 291 256 253 230 343 145 25 357 55 38 111 135 94 41 15 17 22 35 34 48 64 78 70 50 40 28 26 24 3 344 339 327 317 316 318 318 316 305 292 282 275 265 262 258 251 243 247
254 337 274 198 159 144 4 158 35 8 34 319 343 356 20 26 31 48 58 71 68 61 58 55 52 45 37 36 33 25 14 348 332 326 323 320 312 310 309 302 296 286 277 274 271 263 249 249 242
314 62 58 75 108 125 316 338 58 17 337 338 7 30 28 11 22 70 71 71 66 53 48 44 31 31 23 21 20 16 1 345 338 339 333 327 319 317 309 307 320 354 27 28 36 50 54 53 89
20 43 354 13 17 217 45 331 55 14 13 5 33 31 24 19 39 61 59 52 29 22 18 6 2 4 10 7 0 355 349 348 342 335 324 314 312 313 312 323 87 88 92 87 78 71 58 43 37
12 40 90 289 334 319 330 229 109 69 43 60 37 56 56 49 51 59 62 176 353 11 13 2 5 353 357 358 357 353 349 339 325 314 312 304 307 297 184 127 109 106 111 103 105 96 91 66 39
32 48 123 105 74 282 318 211 260 318 29 36 66 51 34 23 22 11 288 283 349 0 13 9 357 342 334 340 339 336 331 323 318 313 309 310 305 207 173 31 26 0 53 70 51 80 133 132 166
65 123 32 33 18 306 305 264 231 66 17 65 67 42 24 10 3 346 335 336 340 352 345 331 328 321 319 327 333 327 324 325 320 319 316 314 296 227 320 340 26 39 42 22 15 284 260 216 218
19 52 63 106 105 217 290 269 194 180 206 137 174 246 350 337 330 323 320 324 317 311 324 324 320 324 338 348 338 331 333 336 336 333 339 357 349 327 16 36 30 20 360 327 285 269 268 267 279
114 128 97 123 215 181 14 269 217 189 186 219 208 231 299 299 315 314 319 327 328 327 337 340 347 349 350 329 325 343 347 358 5 11 20 19 12 35 31 19 10 337 296 301 314 318 314 302 294